Change the Weather History Date:

Monday, August 11, 2014

  Actual Average Record
Temperature  
Mean Temperature 82 °F 82 °F  
Max Temperature 91 °F 90 °F 98 °F (1954)
Min Temperature 73 °F 74 °F 67 °F (1967)
Cooling Degree Days 17 17  
Month to date cooling degree days 181 187  
Year to date cooling degree days 1605 1633  
Since 1 June cooling degree days 1154 1185  
Growing Degree Days 32 (Base 50)    
Moisture  
Dew Point 71 °F    
Average Humidity 73    
Maximum Humidity 93    
Minimum Humidity 52    
Precipitation  
Precipitation 0.00 in 0.23 in 3.73 in (1911)
Month to date precipitation 1.13 2.64  
Year to date precipitation 68.51 40.65  
Sea Level Pressure  
Sea Level Pressure 29.98 in    
Wind  
Wind Speed 7 mph (NW)    
Max Wind Speed 16 mph    
Max Gust Speed 21 mph    
Visibility 10 miles    
Events      
T = Trace of Precipitation, MM = Missing Value Source: NWS Daily Summary

Daily Weather History Graph

Daily Weather History Graph

Search for Another Location

Airport or City:

Trip Planner

Search our weather history database for the weather conditions in past years. The results will help you decide how hot, cold, wet, or windy it might be!

Date:

Astronomy

Aug. 11, 2014 Rise Set
Actual Time 6:13 AM CDT 7:34 PM CDT
Civil Twilight 5:47 AM CDT 7:59 PM CDT
Nautical Twilight 5:17 AM CDT 8:30 PM CDT
Astronomical Twilight 4:45 AM CDT 9:01 PM CDT
Moon 8:12 PM CDT (8/11) 7:09 AM CDT (8/11)
Length of Visible Light 14h 12m
Length of Day
13h 21m
Full, 99% of the Moon is Illuminated
Aug 11
Full
Aug 17
Last Quarter
Aug 25
New
Sep 2
First Quarter
Sep 8
Full

Hourly Weather History & Observations

Time (CDT) Temp. Heat Index Dew Point Humidity Pressure Visibility Wind Dir Wind Speed Gust Speed Precip Events Conditions
12:53 AM 77.0 °F - 72.0 °F 84% 29.99 in 10.0 mi North 5.8 mph - N/A   Clear
1:53 AM 75.0 °F - 71.1 °F 87% 29.96 in 10.0 mi Calm Calm - N/A   Clear
2:53 AM 73.9 °F - 72.0 °F 93% 29.96 in 10.0 mi Calm Calm - N/A   Clear
3:53 AM 75.0 °F - 72.0 °F 90% 29.97 in 10.0 mi WNW 5.8 mph - N/A   Clear
4:53 AM 73.0 °F - 71.1 °F 93% 29.98 in 10.0 mi North 4.6 mph - N/A   Clear
5:53 AM 73.0 °F - 71.1 °F 93% 30.00 in 10.0 mi NNW 3.5 mph - N/A   Scattered Clouds
6:53 AM 73.0 °F - 71.1 °F 93% 30.01 in 10.0 mi NW 6.9 mph - N/A   Clear
7:53 AM 75.9 °F - 72.0 °F 87% 30.03 in 10.0 mi NNW 9.2 mph - N/A   Scattered Clouds
8:04 AM 75.9 °F - 72.0 °F 87% 30.02 in 10.0 mi NNW 8.1 mph - N/A   Mostly Cloudy
8:38 AM 79.0 °F - 71.1 °F 77% 30.02 in 10.0 mi NW 9.2 mph - N/A   Scattered Clouds
8:53 AM 80.1 °F 83.6 °F 71.1 °F 74% 30.02 in 10.0 mi NNW 9.2 mph - N/A   Clear
9:53 AM 82.9 °F 88.8 °F 73.0 °F 72% 30.03 in 10.0 mi WNW 8.1 mph - N/A   Clear
10:53 AM 86.0 °F 90.7 °F 70.0 °F 59% 30.02 in 10.0 mi WNW 9.2 mph - N/A   Scattered Clouds
11:53 AM 86.0 °F 91.5 °F 71.1 °F 61% 30.01 in 10.0 mi NW 11.5 mph 19.6 mph N/A   Clear
12:53 PM 89.1 °F 95.0 °F 71.1 °F 55% 30.00 in 10.0 mi NNW 11.5 mph 16.1 mph N/A   Scattered Clouds
1:53 PM 88.0 °F 94.7 °F 72.0 °F 59% 29.98 in 10.0 mi NW 10.4 mph - N/A   Mostly Cloudy
2:53 PM 90.0 °F 96.4 °F 71.1 °F 54% 29.96 in 10.0 mi NNW 6.9 mph - N/A   Scattered Clouds
3:53 PM 90.0 °F 96.4 °F 71.1 °F 54% 29.95 in 10.0 mi NW 10.4 mph - N/A   Scattered Clouds
4:53 PM 88.0 °F 94.7 °F 72.0 °F 59% 29.95 in 10.0 mi NNW 5.8 mph - N/A   Scattered Clouds
5:53 PM 90.0 °F 95.4 °F 70.0 °F 52% 29.92 in 10.0 mi North 5.8 mph - N/A   Partly Cloudy
6:53 PM 87.1 °F 91.3 °F 69.1 °F 55% 29.93 in 10.0 mi NW 5.8 mph - N/A   Clear
7:53 PM 82.9 °F 89.4 °F 73.9 °F 74% 29.93 in 10.0 mi WSW 13.8 mph - N/A   Clear
8:53 PM 81.0 °F 86.2 °F 73.9 °F 79% 29.94 in 10.0 mi WNW 10.4 mph - N/A   Clear
9:53 PM 79.0 °F - 71.1 °F 77% 29.96 in 10.0 mi West 5.8 mph - N/A   Clear
10:53 PM 78.1 °F - 70.0 °F 76% 29.97 in 10.0 mi West 9.2 mph - N/A   Clear
11:53 PM 77.0 °F - 71.1 °F 82% 29.96 in 10.0 mi WNW 6.9 mph - N/A   Clear